This is the latest recevied weather packets stored in our database for station/object K4XP. If no packets are shown the sender has not sent any weather packets the latest 10 day(s).
| Time | Temp. | Humidity | Pressure | Rain* | Wind** | Luminosity | Snow |
|---|---|---|---|---|---|---|---|
| 1788558319 | 36.11° C | 51% | 1014.3 hPa | 0 mm | - | - | - |
| 1788558021 | 36.11° C | 48% | 1014.4 hPa | 0 mm | - | - | - |
| 1788557724 | 36.11° C | 50% | 1014.4 hPa | 0 mm | - | - | - |
| 1788557435 | 36.11° C | 52% | 1014.4 hPa | 0 mm | - | - | - |
| 1788557118 | 36.11° C | 53% | 1014.5 hPa | 0 mm | - | - | - |
| 1788556530 | 36.11° C | 53% | 1014.5 hPa | 0 mm | - | - | - |
| 1788556213 | 36.11° C | 53% | 1014.4 hPa | 0 mm | - | - | - |
| 1788555936 | 36.11° C | 53% | 1014.5 hPa | 0 mm | - | - | - |
| 1788555620 | 36.11° C | 52% | 1014.5 hPa | 0 mm | - | - | - |
| 1788555323 | 35.56° C | 53% | 1014.4 hPa | 0 mm | - | - | - |
| 1788555011 | 35.56° C | 55% | 1014.5 hPa | 0 mm | - | - | - |
| 1788554731 | 35.56° C | 54% | 1014.5 hPa | 0 mm | - | - | - |
| 1788554425 | 35.56° C | 51% | 1014.5 hPa | 0 mm | - | - | - |
| 1788554133 | 35.56° C | 51% | 1014.5 hPa | 0 mm | - | - | - |
| 1788553818 | 36.11° C | 52% | 1014.5 hPa | 0 mm | - | - | - |
| 1788553527 | 35.56° C | 53% | 1014.5 hPa | 0 mm | - | - | - |
| 1788553228 | 35.56° C | 52% | 1014.6 hPa | 0 mm | - | - | - |
| 1788552917 | 35.56° C | 52% | 1014.7 hPa | 0 mm | - | - | - |
| 1788552311 | 36.11° C | 55% | 1015 hPa | 0 mm | - | - | - |
| 1788552022 | 36.11° C | 56% | 1015 hPa | 0 mm | - | - | - |
| 1788551758 | 36.11° C | 55% | 1015.1 hPa | 0 mm | - | - | - |
| 1788551414 | 35.56° C | 55% | 1015.1 hPa | 0 mm | - | - | - |
| 1788551117 | 35.56° C | 57% | 1015.2 hPa | 0 mm | - | - | - |
| 1788550822 | 35.56° C | 55% | 1015.3 hPa | 0 mm | - | - | - |
| 1788549914 | 35.56° C | 54% | 1015.6 hPa | 0 mm | - | - | - |
* Rain latest hour (hover to see other rain measurements)
** Current wind speed in m/s (hover to see current wind gust speed)